User: anonymous   Login
Location: Unspecified
(0.0000°N, 0.0000°E)
Time: 07:17:04
(UTC+02:00)
Language:

Cosmos 1733 Rocket - Orbit

View from above orbital plane
View from above orbital plane
View from above satellite
View from above satellite

Ground track
Ground track

The orbit data is extracted from the following two-line orbital elements,

1 16612U 86018B   15182.24351293  .00000138  00000-0  13708-4 0  9990
2 16612 082.5170 248.9920 0017810 004.4045 053.4531 14.83943069485127
Epoch (UTC): 01 July 2015 05:50:39
Eccentricity: 0.0017810
inclination: 82.5170°
perigee height: 604 km
apogee height: 629 km
right ascension of ascending node: 248.9920°
argument of perigee: 4.4045°
revolutions per day: 14.83943069
mean anomaly at epoch: 53.4531°
orbit number at epoch: 48512

The dashed part of the orbit path shows where the satellite is in the earth's shadow,  

DLR